Location: Czekan�w
(50.3488°N, 18.7344°E)
Time: 18:14:31
(UTC+00:00)

Cosmos 1943 Rocket - Pass Details

Date: 17 February 2020
Orbit: 814 x 842 km, 71.0° (Epoch: 31 March)

Event Time Altitude Azimuth Distance (km) Brightness Sun altitude
Exits shadow 02:49:45 21° 349° (N) 1,774 3.9 -29.8°
Maximum altitude 02:53:09 45° 52° (NE) 1,102 3.1 -29.2°
Drops below altitude 10° 02:58:25 10° 125° (SE) 2,401 5.0 -28.4°
Sets 03:00:56 0° 132° (SE) 3,331 5.7 -28.1°
